{"data":{"norad_id":64435,"intl_designator":"2025-129Z","name":"STARLINK-34478","alt_names":[],"object_type":"PAYLOAD","status":"ACTIVE","operator":null,"country":"US","launch_date":"2025-06-17","launch_site_code":"AFWTR","launch_vehicle":null,"mission":null,"orbit_class":"UNKNOWN","rcs_meters":null,"size_class":null,"mass_kg":null,"dimensions":null,"purposes":["comms"],"wikipedia_slug":null,"has_3d_model":false,"image_url":null,"decayed_at":null,"tle_current":{"epoch":"2026-09-20T16:00:01.999584Z","epoch_age_seconds":119813,"freshness":"FRESH","line1":"1 64435U 25129Z   26263.66668981 -.00029887  00000+0 -10120-2 0  9991","line2":"2 64435  70.0003 300.5610 0003518 276.4475 323.7062 15.30444513  5795","mean_motion":15.30444513,"eccentricity":0.0003518,"inclination_deg":70.0003,"raan_deg":300.561,"arg_perigee_deg":276.4475,"mean_anomaly_deg":323.7062,"bstar":-0.001012,"rev_number":579,"period_min":94.090310871662,"perigee_km":472.07434242437,"apogee_km":476.89584733033,"semimajor_km":6852.6220948773,"source":"CELESTRAK","updated_at":"2026-09-21T09:00:35.351272Z"}}}